Location: Holyhead Bay
(53.3667°N, 4.6667°W)
Time: 00:43:48
(UTC+00:00)

IRIDIUM 33 DEB - Pass Details

Date: 26 September 2021
Orbit: 583 x 600 km, 86.4° (Epoch: 15 October)

Event Time Altitude Azimuth Distance (km) Brightness Sun altitude
Rises 03:49:17 0° 2° (N) 2,857 ? -21.2°
Reaches altitude 10° 03:51:46 10° 14° (NNE) 1,946 ? -20.9°
Maximum altitude 03:55:29 28° 74° (ENE) 1,129 ? -20.4°
Drops below altitude 10° 03:59:09 10° 135° (SE) 1,921 ? -19.9°
Sets 04:01:34 0° 147° (SSE) 2,814 ? -19.6°
